AirNav   Air Wisconsin pilot careers
 
 345 users online  

7M0 Mc Crory/Morton Airport
Mc Crory, Arkansas, USA

GOING TO MC CRORY?


FAA INFORMATION EFFECTIVE 06 DECEMBER 2018

Location

FAA Identifier: 7M0
Lat/Long: 35-13-42.3000N / 091-05-35.4000W
35-13.705000N / 091-05.590000W
35.2284167 / -91.0931667
(estimated)
Elevation: 222 ft. / 67.7 m (surveyed)
Variation: 03E (1985)
From city: 6 miles SE of MC CRORY, AR
Time zone: UTC -6 (UTC -5 during Daylight Saving Time)
Zip code: 72101

Airport Operations

Airport use: Open to the public
Activation date: 06/1964
Control tower: no
ARTCC: MEMPHIS CENTER
FSS: JONESBORO FLIGHT SERVICE STATION
NOTAMs facility: JBR (NOTAM-D service available)
Attendance: UNATNDD
Wind indicator: yes
Segmented circle: no

Airport Communications

CTAF: 122.9

Nearby radio navigation aids

VOR radial/distance  VOR name  Freq  Var
GQEr253/30.9GILMORE VOR/DME113.0004E

Airport Services

Airframe service: NONE
Powerplant service: NONE
Bottled oxygen: NONE
Bulk oxygen: NONE

Runway Information

Runway 18/36

Dimensions: 2400 x 20 ft. / 732 x 6 m
Surface: asphalt, in good condition
RUNWAY 18  RUNWAY 36
Latitude: 35-13.903167N35-13.507500N
Longitude: 091-05.585500W091-05.594333W
Traffic pattern: leftleft
Obstructions: 45 ft. trees, 1800 ft. from runway, 35:1 slope to clear45 ft. trees, 2000 ft. from runway, 40:1 slope to clear

Airport Ownership and Management from official FAA records

Ownership: Privately-owned
Owner: G.L. MORRIS & I.N. ARNOF
P.O. BOX 750
MC CRORY, AR 72101
Phone 870-731-2218
Manager: MARTY REYNOLDS
REYNOLDS FLYING SVC 9358 HWY 269
MC CRORY, AR 72101
Phone (870) 457-2069

Airport Operational Statistics

Aircraft based on the field: 2
Single engine airplanes: 2
    
Aircraft operations: avg 82/day *
100% local general aviation
<1% transient general aviation
* for 12-month period ending 31 August 2016

Instrument Procedures

There are no published instrument procedures at 7M0.

Some nearby airports with instrument procedures:

M60 - Woodruff County Airport (9 nm W)
KDRP - Delta Regional Airport (15 nm SE)
M36 - Frank Federer Memorial Airport (21 nm S)
M19 - Newport Regional Airport (25 nm N)
6M7 - Marianna/Lee County Airport-Steve Edwards Field (30 nm SE)
 
Loc | Ops | Rwys | IFR | FBO | Links
Com | Nav | Svcs | Stats | Notes


 
Area around 7M0 (Mc Crory/Morton Airport)
 
Road maps at: MapQuest Bing Google
 
Aerial photo
WARNING: Photo may not be current or correct
Aerial photo of 7M0 (Mc Crory/Morton Airport)
Do you have a better or more recent aerial photo of Mc Crory/Morton Airport that you would like to share? If so, please send us your photo.

 
Sectional chart

 
Airport distance calculator
Flying to Mc Crory/Morton Airport? Find the distance to fly.

From to 7M0

Sunrise and sunset
Times for 19-Dec-2018
 Local
(UTC-6)
 Zulu
(UTC)
Morning civil twilight06:4112:41
Sunrise07:0913:09
Sunset16:5422:54
Evening civil twilight17:2223:22

Current date and time
Zulu (UTC)  19-Dec-2018 10:22:25
Local (UTC-6)  19-Dec-2018 04:22:25
 
METAR
KM19 
25nm N 
190956Z AUTO 11003KT 10SM CLR 04/03 A2999 RMK AO2 SLP163 T00440033
KSRC 
31nm W 
190956Z AUTO 00000KT 10SM OVC004 08/08 A2999 RMK AO2 SLP167 T00780078
KBVX 
40nm NW 
190956Z AUTO 00000KT 10SM BKN023 06/04 A2998 RMK AO2 SLP153 T00560044
KJBR 
42nm NE 
190953Z AUTO 00000KT 8SM CLR 02/01 A3000 RMK AO2 SNB14E36 SLP157 P0000 T00220006
KAWM 
42nm E 
190953Z AUTO 16004KT 8SM FEW030 05/04 A3000 RMK AO2 SLP160 T00500039 $
KSGT 
44nm SW 
190956Z AUTO 16003KT 1/4SM -RA FG OVC003 08/08 A3000 RMK AO2 RAB38 SLP160 P0000 T00830083 RVRNO
KUTA 
49nm SE 
190955Z AUTO 00000KT 10SM 03/03 A3002 RMK AO2 TSNO
TAF
KJBR 
42nm NE 
190709Z 1907/2006 07003KT P6SM FEW250 TEMPO 1908/1909 SCT025 FM190900 08003KT P6SM BKN025 FM191300 19006KT P6SM OVC020 FM191800 21007KT P6SM SCT025 BKN150 FM200000 19004KT P6SM VCSH OVC030 FM200300 VRB03KT P6SM VCSH OVC015
NOTAMs
Click for the latest NOTAMs
NOTAMs are issued by the DoD/FAA and will open in a separate window not controlled by AirNav.

 

 
 

Would you like to see your business listed on this page?

 If your business provides an interesting product or service to pilots, flight crews, aircraft, or users of the Mc Crory/Morton Airport, you should consider listing it here.  To start the listing process, click on the button below
 
Add a business
 

Other Pages about Mc Crory/Morton Airport

Update a link
 
Copyright © AirNav, LLC. All rights reserved. Privacy Policy  Contact